Location: La Estación
(39.9833°N, 3.9500°W)
Time: 15:04:06
(UTC+00:00)

Cosmos 2100 Rocket - Pass Details

Date: 14 June 2025
Orbit: 954 x 1001 km, 82.9° (Epoch: 19 July)

Event Time Altitude Azimuth Distance (km) Brightness Sun altitude
Rises 21:40:56 0° 352° (N) 3,655 8.1 -17.1°
Reaches altitude 10° 21:43:27 10° 353° (N) 2,700 7.2 -17.4°
Maximum altitude 21:49:38 89° 269° (W) 961 3.9 -18.1°
Enters shadow 21:53:19 26° 175° (S) 1,789 4.9 -18.5°
